[[{"header":{"parameterUnit":"m.s-1","parameterCategory":1,"la1":30.2991,"la2":30.254,"lo1":-89.0895,"lo2":-89.0444,"dy":0.0017,"dx":0.0017,"nx":28,"ny":28,"refTime":"2024-10-18T09:00:00:Z","depth":0,"parameterNumber":2,"parameterNumberName":"U-component_of_WINDS"},"data":[0,0,0,0,0,0,0,0,0,0,0,0,0,0,0,0,0,0,0,0,0,0,0,0,0,0,0,0,0,0,0,0,0,0,0,0,0,0,0,0,0,0,0,0,0,0,0,0,0,0,0,0,0,0,0,0,0,0,-4.2478,-4.2478,0,-4.25,-4.25,-4.25,-4.2354,-4.235,-4.2346,-4.2342,-4.2364,-4.2368,-4.2373,0,0,0,0,0,0,0,0,0,0,0,0,0,-4.2308,-4.2312,-4.2478,-4.2478,-4.2478,-4.25,-4.25,-4.25,-4.2355,-4.235,-4.2345,-4.234,-4.2362,-4.2368,-4.2373,0,0,0,0,0,0,0,0,0,0,0,0,0,-4.2361,-4.2314,-4.2478,-4.2409,-4.2403,-4.25,-4.25,-4.25,-4.2356,-4.235,-4.2344,-4.2338,-4.2361,-4.2367,-4.2374,-4.2538,0,0,-4.2394,-4.2397,0,0,0,0,0,0,0,0,-4.2359,-4.2368,-4.2418,-4.2413,-4.2407,-4.2418,-4.2448,-4.2513,-4.2358,-4.2374,-4.2342,-4.2335,-4.2387,-4.2391,-4.2408,-4.2539,-4.254,-4.2394,-4.2398,-4.2401,-4.2403,0,0,0,0,0,0,0,-4.2355,-4.2366,-4.2486,-4.2419,-4.2412,-4.2376,-4.2376,-4.246,-4.2415,-4.2372,-4.2361,-4.2366,-4.2382,-4.2403,-4.2408,-4.254,-4.2394,-4.24,-4.2404,-4.2407,-4.2805,-4.2811,0,0,0,0,0,0,-4.2361,-4.2364,-4.2486,-4.2487,-4.2367,-4.2384,-4.2385,-4.2421,-4.2413,-4.2406,-4.2371,-4.2359,-4.2394,-4.24,-4.2408,-4.2599,-4.2401,-4.2407,-4.2411,-4.2799,-4.2807,-4.2814,0,0,0,0,0,0,-4.2358,-4.2373,-4.2485,-4.2423,-4.2434,-4.2393,-4.2435,-4.2424,-4.2444,-4.2413,-4.2404,-4.24,-4.239,-4.2399,-4.2506,-4.2598,-4.241,-4.2416,-4.2791,-4.2801,-4.281,-4.2983,0,0,0,0,0,0,-4.2354,-4.2373,-4.2435,-4.2425,-4.2438,-4.2584,-4.2441,-4.2429,-4.2456,-4.244,-4.2438,-4.2431,-4.2385,-4.2497,-4.2513,-4.2604,-4.2422,-4.2782,-4.2795,-4.2807,-4.2969,-4.2998,-4.3023,0,0,0,0,0,-4.2348,-4.2483,-4.2439,-4.2455,-4.2515,-4.2589,-4.2596,-4.2542,-4.2464,-4.2526,-4.2506,-4.2431,-4.2586,-4.251,-4.2526,-4.262,-4.2776,-4.2792,-4.2806,-4.2957,-4.2992,-4.3022,0,0,0,0,0,0,-4.2505,-4.2481,-4.2432,-4.2568,-4.2582,-4.2565,-4.2641,-4.2581,-4.2617,-4.26,-4.253,-4.2531,-4.265,-4.2645,-4.2562,-4.2778,-4.2667,-4.2686,-4.2777,-4.281,-4.2836,-4.2834,-4.2427,0,0,0,0,0,-4.2556,-4.2619,-4.2593,-4.2716,-4.2725,-4.2683,-4.2713,-4.2669,-4.2681,-4.2686,-4.2673,-4.2687,-4.2738,-4.2774,-4.2819,-4.2968,-4.2965,-4.304,-4.3067,-4.3089,-4.3106,-4.3184,-4.3217,-4.2863,-4.2862,-4.2862,0,0,-4.2661,-4.2655,-4.2699,-4.2747,-4.2753,-4.2819,-4.2689,-4.2764,-4.2812,-4.2697,-4.2798,-4.279,-4.28,-4.2929,-4.2985,-4.2929,-4.3203,-4.3108,-4.3126,-4.3131,-4.3202,-4.3236,-4.3266,-4.2873,-4.2871,-4.2869,0,0,-4.2885,-4.2888,-4.299,-4.2998,-4.3009,-4.2979,-4.3004,-4.2996,-4.2986,-4.3086,-4.3001,-4.3057,-4.3147,-4.3158,-4.3175,-4.3404,-4.3336,-4.3421,-4.356,-4.3636,-4.3664,-4.3688,-4.377,-4.38,-4.3438,-4.3438,-4.3439,0,-4.3015,-4.3111,-4.305,-4.3131,-4.3154,-4.3054,-4.3156,-4.3167,-4.3192,-4.321,-4.3147,-4.3257,-4.3257,-4.3387,-4.3443,-4.346,-4.3486,-4.3421,-4.3665,-4.3689,-4.3711,-4.3787,-4.3818,-4.3448,-4.3447,-4.3446,-4.3445,0,-4.3269,-4.3337,-4.3418,-4.3445,-4.3477,-4.3569,-4.3521,-4.3561,-4.3514,-4.3492,-4.3594,-4.3591,-4.3634,-4.3661,-4.3617,-4.3785,-4.3749,-4.3677,-4.3564,-4.3756,-4.3826,-4.3855,-4.3463,-4.3459,-4.3456,-4.3454,0,0,-4.3593,-4.3585,-4.3616,-4.3626,-4.363,-4.3681,-4.3768,-4.3809,-4.3845,-4.3866,-4.3936,-4.4014,-4.3947,-4.3967,-4.3923,-4.399,-4.4171,-4.3909,-4.3908,-4.3957,-4.4355,-4.4409,-4.4444,-4.4126,-4.4131,-4.4136,-4.4354,0,-4.3813,-4.396,-4.3907,-4.4058,-4.412,-4.4025,-4.41,-4.411,-4.4091,-4.414,-4.4118,-4.4175,-4.4082,-4.4093,-4.4156,-4.4136,-4.425,-4.4119,-4.419,-4.4194,-4.4191,-4.4481,-4.4539,-4.4745,-4.4381,-4.4386,-4.4389,0,-4.4088,-4.412,-4.4277,-4.4269,-4.4293,-4.4362,-4.4395,-4.4444,-4.4453,-4.4434,-4.4457,-4.4398,-4.4482,-4.437,-4.4483,-4.4396,-4.4422,-4.4416,-4.4423,-4.4427,-4.4303,-4.4493,-4.481,-4.4841,-4.4432,-4.4429,-4.4426,0,-4.4309,-4.439,-4.4495,-4.4507,-4.4501,-4.4551,-4.4551,-4.4554,-4.4583,-4.4612,-4.463,-4.4669,-4.469,-4.4722,-4.4675,-4.4597,-4.4796,-4.4679,-4.4782,-4.4783,-4.4828,-4.4826,-4.5153,-4.4846,-4.4845,-4.4844,-4.4844,0,-4.4559,-4.4659,-4.4593,-4.4658,-4.4766,-4.4704,-4.4813,-4.4802,-4.4806,-4.4866,-4.4786,-4.4844,-4.4778,-4.483,-4.4794,-4.4894,-4.4904,-4.4891,-4.488,-4.4898,-4.49,-4.4914,-4.4898,-4.4853,-4.4851,-4.4849,-4.4848,0,-4.4824,-4.4784,-4.4891,-4.4877,-4.4875,-4.4956,-4.4943,-4.5002,-4.4977,-4.5054,-4.5068,-4.5029,-4.5086,-4.5042,-4.5098,-4.5073,-4.5205,-4.5174,-4.5202,-4.5193,-4.5298,-4.5289,-4.5646,-4.5689,-4.5354,-4.5358,-4.536,0,-4.4986,-4.506,-4.5054,-4.5088,-4.5093,-4.515,-4.5178,-4.512,-4.5153,-4.5169,-4.5225,-4.5275,-4.5312,-4.5407,-4.5383,-4.5425,-4.5394,-4.5516,-4.54,-4.5416,-4.5396,-4.5392,-4.5399,-4.554,-4.5544,-4.5547,-4.555,0,-4.5278,-4.5254,-4.5299,-4.5337,-4.5373,-4.54,-4.542,-4.5453,-4.5394,-4.5435,-4.5492,-4.552,-4.5577,-4.5627,-4.5661,-4.5659,-4.5596,-4.5587,-4.5612,-4.5632,-4.5645,-4.5639,-4.5266,-4.5579,-4.5576,-4.5574,-4.5572,-4.5571,-4.5496,-4.5557,-4.5562,-4.5614,-4.5623,-4.5644,-4.5698,-4.568,-4.5726,-4.5768,-4.573,-4.5799,-4.5805,-4.5844,-4.5851,-4.5903,-4.5853,-4.5891,-4.59,-4.591,-4.5925,-4.5637,-4.5909,-4.5909,-4.5908,-4.5907,-4.5906,0,-4.5783,-4.5781,-4.583,-4.5861,-4.5902,-4.5837,-4.5857,-4.5895,-4.5956,-4.5968,-4.6006,-4.6071,-4.6119,-4.6099,-4.6142,-4.6187,-4.6159,-4.6201,-4.6197,-4.6197,-4.5968,-4.5941,-4.6223,-4.6223,-4.6223,-4.6223,-4.6223,-4.6223,-4.5938,-4.6038,-4.6015,-4.6119,-4.6116,-4.6183,-4.6199,-4.6218,-4.6227,-4.6303,-4.6343,-4.633,-4.6329,-4.637,-4.6411,-4.6404,-4.6423,-4.6476,-4.6459,-4.6245,-4.6213,-4.6184,-4.6158,-4.6481,-4.6481,-4.6683,-4.6685,-4.6686]},{"header":{"parameterUnit":"m.s-1","parameterCategory":1,"la1":30.2991,"la2":30.254,"lo1":-89.0895,"lo2":-89.0444,"dy":0.0017,"dx":0.0017,"nx":28,"ny":28,"refTime":"2024-10-18T09:00:00:Z","depth":0,"parameterNumber":3,"parameterNumberName":"V-component_of_WINDS"},"data":[0,0,0,0,0,0,0,0,0,0,0,0,0,0,0,0,0,0,0,0,0,0,0,0,0,0,0,0,0,0,0,0,0,0,0,0,0,0,0,0,0,0,0,0,0,0,0,0,0,0,0,0,0,0,0,0,0,0,-1.9322,-1.9322,0,-1.9374,-1.9374,-1.9375,-1.9367,-1.9366,-1.9365,-1.9364,-1.9414,-1.9416,-1.9418,0,0,0,0,0,0,0,0,0,0,0,0,0,-1.9211,-1.9213,-1.9322,-1.9322,-1.9323,-1.9374,-1.9374,-1.9375,-1.9367,-1.9366,-1.9365,-1.9364,-1.9413,-1.9415,-1.9418,0,0,0,0,0,0,0,0,0,0,0,0,0,-1.926,-1.9213,-1.9322,-1.9325,-1.9326,-1.9373,-1.9374,-1.9375,-1.9367,-1.9366,-1.9364,-1.9363,-1.9412,-1.9415,-1.9418,-1.9464,0,0,-1.9428,-1.9429,0,0,0,0,0,0,0,0,-1.9257,-1.9264,-1.9324,-1.9325,-1.9326,-1.9362,-1.9353,-1.9405,-1.9367,-1.9351,-1.9364,-1.9362,-1.9397,-1.9402,-1.9414,-1.9467,-1.9469,-1.9428,-1.943,-1.9432,-1.9433,0,0,0,0,0,0,0,-1.9254,-1.9262,-1.9342,-1.9325,-1.9326,-1.9322,-1.9328,-1.9363,-1.9381,-1.9353,-1.9352,-1.9359,-1.9398,-1.9411,-1.9415,-1.947,-1.9428,-1.9431,-1.9433,-1.9434,-1.956,-1.9562,0,0,0,0,0,0,-1.925,-1.9259,-1.934,-1.9344,-1.9288,-1.9325,-1.9332,-1.9352,-1.9381,-1.9384,-1.936,-1.9358,-1.9406,-1.9412,-1.9417,-1.9472,-1.9432,-1.9435,-1.9436,-1.9559,-1.9561,-1.9562,0,0,0,0,0,0,-1.9248,-1.9257,-1.9338,-1.9301,-1.9311,-1.9329,-1.9352,-1.9354,-1.9367,-1.9386,-1.9389,-1.937,-1.9405,-1.9412,-1.9452,-1.9473,-1.9436,-1.9439,-1.9557,-1.9559,-1.9561,-1.9582,0,0,0,0,0,0,-1.9245,-1.9257,-1.9276,-1.9302,-1.9313,-1.9375,-1.9353,-1.9356,-1.9373,-1.9372,-1.9397,-1.94,-1.9405,-1.9448,-1.9456,-1.9477,-1.9442,-1.9555,-1.9558,-1.9561,-1.958,-1.9585,-1.9589,0,0,0,0,0,-1.9241,-1.9279,-1.9277,-1.9287,-1.9338,-1.9376,-1.9382,-1.9389,-1.9375,-1.9393,-1.9405,-1.9399,-1.947,-1.9452,-1.9461,-1.9483,-1.9554,-1.9557,-1.9561,-1.9578,-1.9584,-1.9589,0,0,0,0,0,0,-1.9254,-1.9283,-1.928,-1.9329,-1.935,-1.9374,-1.9398,-1.9395,-1.942,-1.9417,-1.9423,-1.9428,-1.9469,-1.948,-1.946,-1.9528,-1.951,-1.9515,-1.952,-1.9526,-1.953,-1.9526,-1.9444,0,0,0,0,0,-1.9263,-1.9293,-1.9316,-1.9356,-1.9367,-1.938,-1.9397,-1.94,-1.9422,-1.9431,-1.9445,-1.9466,-1.9492,-1.951,-1.9535,-1.9581,-1.9586,-1.9601,-1.9606,-1.9609,-1.9613,-1.9637,-1.9643,-1.9573,-1.9573,-1.9573,0,0,-1.9281,-1.93,-1.9319,-1.9359,-1.9376,-1.9405,-1.9388,-1.942,-1.9441,-1.9435,-1.9474,-1.9485,-1.9508,-1.9551,-1.957,-1.9561,-1.9634,-1.9613,-1.9616,-1.9618,-1.9641,-1.9647,-1.9653,-1.9575,-1.9574,-1.9574,0,0,-1.9328,-1.9347,-1.9382,-1.9399,-1.9425,-1.9433,-1.9442,-1.9466,-1.9474,-1.9513,-1.9509,-1.9533,-1.9579,-1.9595,-1.9609,-1.9661,-1.9656,-1.9669,-1.9694,-1.9716,-1.9722,-1.9727,-1.9744,-1.975,-1.9673,-1.9674,-1.9674,0,-1.9347,-1.9393,-1.94,-1.9432,-1.9449,-1.9446,-1.948,-1.9495,-1.9528,-1.9539,-1.9529,-1.9586,-1.9601,-1.9647,-1.9659,-1.9671,-1.9679,-1.9666,-1.9721,-1.9726,-1.973,-1.9747,-1.9753,-1.9675,-1.9675,-1.9675,-1.9674,0,-1.9414,-1.9445,-1.947,-1.9502,-1.9522,-1.9555,-1.9565,-1.9584,-1.9585,-1.9594,-1.9632,-1.965,-1.9679,-1.969,-1.9691,-1.9735,-1.9729,-1.972,-1.9701,-1.9738,-1.9754,-1.976,-1.9677,-1.9676,-1.9676,-1.9676,0,0,-1.9472,-1.9507,-1.9516,-1.953,-1.9557,-1.9581,-1.9612,-1.9641,-1.9657,-1.9679,-1.9704,-1.9743,-1.9734,-1.975,-1.9753,-1.9773,-1.9811,-1.9761,-1.9761,-1.9769,-1.9859,-1.9865,-1.9872,-1.9808,-1.9809,-1.981,-1.9856,0,-1.9521,-1.9579,-1.9586,-1.9637,-1.9664,-1.9661,-1.9688,-1.9707,-1.9716,-1.9739,-1.9749,-1.9775,-1.9763,-1.9772,-1.9792,-1.9802,-1.9829,-1.9799,-1.983,-1.9831,-1.9824,-1.9881,-1.9887,-1.9931,-1.9863,-1.9864,-1.9864,0,-1.9587,-1.9612,-1.9666,-1.9688,-1.97,-1.9725,-1.975,-1.9774,-1.9794,-1.9799,-1.9816,-1.9816,-1.9846,-1.9827,-1.9868,-1.9848,-1.9861,-1.9867,-1.9869,-1.9872,-1.985,-1.9884,-1.9945,-1.9951,-1.9874,-1.9874,-1.9873,0,-1.9623,-1.9669,-1.9707,-1.9719,-1.9746,-1.9763,-1.9775,-1.9795,-1.9811,-1.9833,-1.9843,-1.9868,-1.9882,-1.9901,-1.9906,-1.9891,-1.9947,-1.9928,-1.995,-1.995,-1.9962,-1.9961,-2.0025,-1.9972,-1.9971,-1.9971,-1.9971,0,-1.9677,-1.971,-1.9723,-1.9746,-1.9782,-1.9788,-1.9823,-1.9834,-1.9851,-1.9874,-1.9872,-1.9894,-1.9901,-1.9923,-1.9928,-1.996,-1.9967,-1.997,-1.9971,-1.997,-1.997,-1.9978,-1.9975,-1.9973,-1.9973,-1.9972,-1.9972,0,-1.9723,-1.9733,-1.9774,-1.9796,-1.9803,-1.9828,-1.9846,-1.9867,-1.9876,-1.9906,-1.9913,-1.9925,-1.9952,-1.9959,-1.9991,-1.9994,-2.0032,-2.003,-2.0025,-2.0025,-2.0046,-2.0044,-2.0118,-2.0127,-2.0068,-2.0069,-2.0069,0,-1.9756,-1.9782,-1.9807,-1.9823,-1.9836,-1.9862,-1.9878,-1.9885,-1.9902,-1.9926,-1.9944,-1.997,-1.9992,-2.0034,-2.0045,-2.0068,-2.0066,-2.0091,-2.007,-2.0068,-2.0065,-2.0064,-2.0065,-2.0094,-2.0095,-2.0095,-2.0096,0,-1.9815,-1.9818,-1.9843,-1.9869,-1.9889,-1.991,-1.9929,-1.9942,-1.9951,-1.997,-1.9998,-2.0014,-2.0046,-2.0072,-2.0095,-2.0106,-2.0102,-2.0102,-2.0108,-2.0108,-2.0103,-2.0105,-2.0035,-2.01,-2.01,-2.01,-2.0099,-2.0099,-1.9855,-1.9876,-1.9897,-1.9924,-1.9939,-1.9957,-1.9978,-1.9989,-2.0012,-2.004,-2.0041,-2.0071,-2.0088,-2.012,-2.0132,-2.0153,-2.0146,-2.0155,-2.0158,-2.016,-2.0161,-2.0101,-2.0158,-2.0158,-2.0158,-2.0157,-2.0157,0,-1.9911,-1.9924,-1.9949,-1.9977,-1.9998,-1.9993,-2.0014,-2.0031,-2.0058,-2.0075,-2.0096,-2.0127,-2.0151,-2.0163,-2.0187,-2.0202,-2.0201,-2.0208,-2.0207,-2.0209,-2.0167,-2.0158,-2.0209,-2.0209,-2.0209,-2.0209,-2.0209,-2.0209,-1.9944,-1.9979,-1.9985,-2.0028,-2.004,-2.0069,-2.0082,-2.0098,-2.0111,-2.0146,-2.0167,-2.0175,-2.019,-2.0214,-2.0236,-2.0239,-2.0247,-2.0255,-2.0257,-2.0217,-2.0212,-2.0207,-2.0199,-2.0257,-2.0257,-2.0297,-2.0297,-2.0298]}]]